Location: *
(47.8307°S, 178.3954°E)
Time: 07:15:59
(UTC+00:00)

USA 215 - Pass Details

Date: 12 August 2024
Orbit: 1099 x 1108 km, 123.0° (Epoch: 16 September)

Event Time Altitude Azimuth Distance (km) Brightness Sun altitude
Rises 16:37:13 0° 124° (SE) 3,955 7.1 -26.6°
Reaches altitude 10° 16:39:55 10° 117° (ESE) 2,991 6.4 -26.1°
Maximum altitude 16:46:04 40° 48° (NE) 1,582 4.3 -25.1°
Enters shadow 16:52:08 10° 340° (NNW) 2,954 5.3 -24.1°
